Weather History for KNFL - May, 2012

Change the Weather History Date:

Wednesday, May 2, 2012

  Actual Average Record
Temperature  
Mean Temperature 56 °F -  
Max Temperature 75 °F 71 °F 90 °F (1947)
Min Temperature 36 °F 37 °F 24 °F (1953)
Degree Days  
Heating Degree Days 10    
Growing Degree Days 6 (Base 50)    
Moisture  
Dew Point 16 °F    
Average Humidity 20    
Maximum Humidity 57    
Minimum Humidity 8    
Precipitation  
Precipitation 0.00 in - - ()
Sea Level Pressure  
Sea Level Pressure 29.79 in    
Wind  
Wind Speed 4 mph (West)    
Max Wind Speed 23 mph    
Max Gust Speed 33 mph    
Visibility 10 miles    
Events      
Averages and records for this station are not official NWS values.
T = Trace of Precipitation, MM = Missing Value Source: NWS Daily Summary

Daily Weather History Graph

Daily Weather History Graph

Search for Another Location

Airport or City:

Trip Planner

Search our weather history database for the weather conditions in past years. The results will help you decide how hot, cold, wet, or windy it might be!

Date:

Astronomy

May. 02, 2012 Rise Set
Actual Time 5:54 AM PDT 7:49 PM PDT
Civil Twilight 5:24 AM PDT 8:19 PM PDT
Nautical Twilight 4:49 AM PDT 8:54 PM PDT
Astronomical Twilight 4:11 AM PDT 9:33 PM PDT
Moon 4:09 PM PDT (5/2) 3:25 AM PDT (5/2)
Length of Visible Light 14h 54m
Length of Day
13h 55m
Waxing Gibbous, 84% of the Moon is Illuminated
May 2
Waxing Gibbous
May 5
Full
May 12
Last Quarter
May 20
New
May 28
First Quarter

Hourly Weather History & Observations

Time (PDT) Temp. Windchill Dew Point Humidity Pressure Visibility Wind Dir Wind Speed Gust Speed Precip Events Conditions
5:56 AM 36.0 °F 33.3 °F 21.9 °F 57% 29.82 in 10.0 mi South 3.5 mph - N/A   Partly Cloudy
6:56 AM 41.0 °F - 19.9 °F 43% 29.83 in 10.0 mi Calm Calm - N/A   Partly Cloudy
7:44 AM 48.2 °F - 19.4 °F 32% 29.92 in 10.0 mi Calm Calm - N/A   Partly Cloudy
7:56 AM 48.9 °F - 19.9 °F 32% 29.85 in 10.0 mi Calm Calm - N/A   Partly Cloudy
8:56 AM 55.0 °F - 21.9 °F 28% 29.85 in 10.0 mi Calm Calm - N/A   Scattered Clouds
9:56 AM 57.9 °F - 21.0 °F 24% 29.84 in 10.0 mi Calm Calm - N/A   Mostly Cloudy
10:56 AM 60.1 °F - 17.1 °F 19% 29.84 in 10.0 mi Calm Calm - N/A   Mostly Cloudy
11:56 AM 63.0 °F - 15.1 °F 16% 29.82 in 10.0 mi Variable 3.5 mph - N/A   Overcast
12:56 PM 68.0 °F - 14.0 °F 12% 29.79 in 10.0 mi Calm Calm - N/A   Overcast
1:56 PM 71.1 °F - 14.0 °F 11% 29.78 in 10.0 mi WNW 6.9 mph - N/A   Overcast
2:56 PM 71.1 °F - 10.9 °F 10% 29.76 in 10.0 mi SW 4.6 mph - N/A   Overcast
3:56 PM 75.0 °F - 10.0 °F 8% 29.72 in 10.0 mi NNW 4.6 mph - N/A   Overcast
4:56 PM 73.9 °F - 10.9 °F 9% 29.70 in 10.0 mi Calm Calm - N/A   Overcast
5:56 PM 72.0 °F - 14.0 °F 11% 29.71 in 10.0 mi West 23.0 mph 33.4 mph N/A   Overcast
6:56 PM 68.0 °F - 16.0 °F 14% 29.73 in 10.0 mi WNW 18.4 mph 27.6 mph N/A   Overcast
7:56 PM 66.0 °F - 17.1 °F 15% 29.75 in 10.0 mi West 19.6 mph 25.3 mph N/A   Overcast
8:56 PM 64.0 °F - 18.0 °F 17% 29.76 in 10.0 mi West 12.7 mph - N/A   Overcast
9:56 PM 63.0 °F - 19.0 °F 18% 29.77 in 10.0 mi West 11.5 mph - N/A   Overcast
10:56 PM 61.0 °F - 16.0 °F 17% 29.78 in 10.0 mi Calm Calm - N/A   Clear
11:56 PM 61.0 °F - 12.9 °F 15% 29.78 in 10.0 mi West 11.5 mph - N/A   Clear